TimeEST,TemperatureF,Dew PointF,Humidity,Sea Level PressureIn,VisibilityMPH,Wind Direction,Wind SpeedMPH,Gust SpeedMPH,PrecipitationIn,Events,Conditions,WindDirDegrees,DateUTC
12:15 AM,35.8,32.9,89,30.14,10.0,ENE,3.5,-,N/A,,Clear,60,2013-11-03 04:15:00
12:35 AM,35.1,32.0,89,30.14,10.0,Calm,Calm,-,N/A,,Clear,0,2013-11-03 04:35:00
12:55 AM,33.1,30.6,90,30.15,10.0,Calm,Calm,-,N/A,,Clear,0,2013-11-03 04:55:00
1:15 AM,30.9,28.2,90,30.15,4.0,Calm,Calm,-,N/A,,Clear,0,2013-11-03 05:15:00
1:35 AM,30.9,28.2,90,30.16,3.0,Calm,Calm,-,N/A,,Clear,0,2013-11-03 05:35:00
1:55 AM,30.9,28.4,90,30.17,7.0,Calm,Calm,-,N/A,,Clear,0,2013-11-03 05:55:00
1:15 AM,30.9,28.4,90,30.17,3.0,Calm,Calm,-,N/A,,Clear,0,2013-11-03 06:15:00
1:35 AM,30.9,28.4,90,30.17,2.0,Calm,Calm,-,N/A,,Clear,0,2013-11-03 06:35:00
1:55 AM,29.7,27.1,90,30.18,0.5,Calm,Calm,-,N/A,Fog,Light Freezing Fog,0,2013-11-03 06:55:00
2:15 AM,30.9,28.4,90,30.18,1.2,Calm,Calm,-,N/A,,Mist,0,2013-11-03 07:15:00
2:35 AM,30.9,28.4,90,30.19,7.0,Calm,Calm,-,N/A,,Clear,0,2013-11-03 07:35:00
2:55 AM,30.4,28.0,91,30.20,7.0,Calm,Calm,-,N/A,,Clear,0,2013-11-03 07:55:00
3:15 AM,30.9,28.4,90,30.21,4.0,Calm,Calm,-,N/A,,Clear,0,2013-11-03 08:15:00
3:35 AM,30.9,28.4,90,30.22,7.0,Calm,Calm,-,N/A,,Clear,0,2013-11-03 08:35:00
3:55 AM,29.7,27.3,91,30.22,1.0,Calm,Calm,-,N/A,,Mist,0,2013-11-03 08:55:00
4:15 AM,28.6,26.2,91,30.23,4.0,Calm,Calm,-,N/A,,Clear,0,2013-11-03 09:15:00
4:35 AM,28.8,26.4,91,30.24,10.0,Calm,Calm,-,N/A,,Clear,0,2013-11-03 09:35:00
4:55 AM,28.6,26.2,91,30.24,10.0,Calm,Calm,-,N/A,,Clear,0,2013-11-03 09:55:00
5:15 AM,25.7,23.4,91,30.25,10.0,Calm,Calm,-,N/A,,Clear,0,2013-11-03 10:15:00
5:35 AM,30.9,28.4,90,30.25,10.0,Calm,Calm,-,N/A,,Clear,0,2013-11-03 10:35:00
5:54 AM,30.9,28.4,90,30.25,10.0,Calm,Calm,-,N/A,,Clear,0,2013-11-03 10:54:00
6:15 AM,30.0,27.5,90,30.26,10.0,East,3.5,-,N/A,,Clear,80,2013-11-03 11:15:00
6:35 AM,27.3,25.0,91,30.26,10.0,Calm,Calm,-,N/A,,Clear,0,2013-11-03 11:35:00
6:54 AM,30.7,28.4,91,30.27,10.0,Calm,Calm,-,N/A,,Clear,0,2013-11-03 11:54:00
7:15 AM,28.4,26.1,91,30.28,0.5,Calm,Calm,-,N/A,Fog,Light Freezing Fog,0,2013-11-03 12:15:00
7:35 AM,25.7,23.4,91,30.29,5.0,Calm,Calm,-,N/A,,Clear,0,2013-11-03 12:35:00
7:55 AM,28.4,26.1,91,30.30,4.0,Calm,Calm,-,N/A,,Clear,0,2013-11-03 12:55:00
8:15 AM,28.4,25.7,90,30.31,10.0,Calm,Calm,-,N/A,,Clear,0,2013-11-03 13:15:00
8:35 AM,30.9,28.4,90,30.31,10.0,East,3.5,-,N/A,,Clear,80,2013-11-03 13:35:00
8:55 AM,33.1,31.1,92,30.32,10.0,Calm,Calm,-,N/A,,Clear,0,2013-11-03 13:55:00
9:15 AM,35.8,33.4,91,-9999,10.0,East,3.5,-,N/A,,Clear,100,2013-11-03 14:15:00
9:35 AM,35.8,33.4,91,30.33,10.0,ESE,5.8,-,0.01,,Clear,120,2013-11-03 14:35:00
9:55 AM,38.3,35.1,88,30.32,10.0,SE,4.6,-,0.01,,Clear,130,2013-11-03 14:55:00
10:15 AM,41.0,35.8,82,30.32,10.0,SE,4.6,-,N/A,,Clear,130,2013-11-03 15:15:00
10:35 AM,42.1,36.0,79,30.32,10.0,SSE,3.5,-,N/A,,Clear,150,2013-11-03 15:35:00
10:55 AM,43.3,36.5,77,30.33,10.0,SE,4.6,-,0.05,,Clear,130,2013-11-03 15:55:00
11:15 AM,43.9,35.4,72,30.33,10.0,SE,4.6,-,0.07,,Scattered Clouds,140,2013-11-03 16:15:00
11:35 AM,44.8,35.2,69,30.33,10.0,ESE,4.6,-,0.13,,Scattered Clouds,110,2013-11-03 16:35:00
11:55 AM,44.8,34.0,66,30.33,10.0,SE,5.8,-,0.17,,Scattered Clouds,140,2013-11-03 16:55:00
12:14 PM,46.4,34.2,62,30.33,10.0,SSE,4.6,-,0.02,,Mostly Cloudy,160,2013-11-03 17:14:00
12:35 PM,45.9,33.3,61,30.32,10.0,SE,3.5,-,0.02,,Mostly Cloudy,140,2013-11-03 17:35:00
12:55 PM,45.9,32.5,60,30.31,10.0,SSE,3.5,-,0.02,,Mostly Cloudy,150,2013-11-03 17:55:00
1:14 PM,47.7,33.8,59,30.31,10.0,SSE,4.6,-,N/A,,Scattered Clouds,160,2013-11-03 18:14:00
1:35 PM,48.4,33.3,56,30.31,10.0,South,6.9,-,N/A,,Mostly Cloudy,190,2013-11-03 18:35:00
1:55 PM,48.4,33.1,56,30.31,10.0,SSE,3.5,-,N/A,,Overcast,160,2013-11-03 18:55:00
2:15 PM,48.7,33.1,55,30.30,10.0,Calm,Calm,-,N/A,,Overcast,0,2013-11-03 19:15:00
2:35 PM,48.9,32.7,54,30.31,10.0,SSE,6.9,-,N/A,,Overcast,160,2013-11-03 19:35:00
2:55 PM,48.4,33.1,56,30.30,10.0,SE,5.8,-,N/A,,Overcast,140,2013-11-03 19:55:00
3:15 PM,50.9,34.3,53,30.30,10.0,SSE,8.1,-,N/A,,Overcast,160,2013-11-03 20:15:00
3:35 PM,50.4,34.0,53,30.30,10.0,SSE,3.5,-,N/A,,Overcast,150,2013-11-03 20:35:00
3:55 PM,49.1,32.9,54,30.30,10.0,SSE,5.8,-,N/A,,Overcast,150,2013-11-03 20:55:00
4:15 PM,48.4,34.5,59,30.30,10.0,ESE,6.9,-,N/A,,Overcast,120,2013-11-03 21:15:00
4:35 PM,48.4,34.3,58,30.30,10.0,ESE,8.1,-,N/A,,Overcast,120,2013-11-03 21:35:00
4:55 PM,45.9,33.1,61,30.30,10.0,SE,8.1,-,N/A,,Mostly Cloudy,130,2013-11-03 21:55:00
5:15 PM,44.8,32.7,63,30.31,10.0,SE,5.8,-,N/A,,Overcast,130,2013-11-03 22:15:00
5:35 PM,45.0,32.0,60,30.31,10.0,SSE,4.6,-,N/A,,Overcast,150,2013-11-03 22:35:00
5:55 PM,44.6,32.4,62,30.31,10.0,SE,5.8,-,N/A,,Overcast,130,2013-11-03 22:55:00
6:15 PM,43.9,32.5,64,30.31,10.0,ESE,4.6,-,N/A,,Overcast,110,2013-11-03 23:15:00
6:35 PM,43.7,32.2,64,30.31,10.0,ESE,6.9,-,N/A,,Overcast,120,2013-11-03 23:35:00
6:55 PM,43.3,32.2,65,30.31,10.0,ESE,6.9,-,N/A,,Overcast,120,2013-11-03 23:55:00
7:15 PM,43.3,32.4,65,30.32,10.0,ESE,5.8,-,N/A,,Overcast,120,2013-11-04 00:15:00
7:35 PM,43.3,32.7,66,30.32,10.0,ESE,8.1,-,N/A,,Overcast,120,2013-11-04 00:35:00
7:54 PM,43.3,32.2,65,30.32,10.0,SE,9.2,-,N/A,,Overcast,130,2013-11-04 00:54:00
8:15 PM,43.3,32.4,65,30.32,10.0,ESE,11.5,-,N/A,,Overcast,120,2013-11-04 01:15:00
8:35 PM,42.1,31.8,67,30.32,10.0,SE,9.2,-,N/A,,Overcast,130,2013-11-04 01:35:00
8:55 PM,42.1,31.8,67,30.32,10.0,SE,12.7,18.4,N/A,,Overcast,130,2013-11-04 01:55:00
9:15 PM,42.1,32.0,67,30.32,10.0,SE,12.7,-,N/A,,Overcast,130,2013-11-04 02:15:00
9:35 PM,41.2,31.8,69,30.32,10.0,SE,12.7,-,N/A,,Scattered Clouds,130,2013-11-04 02:35:00
9:55 PM,41.0,31.6,69,30.32,10.0,SE,12.7,18.4,N/A,,Clear,130,2013-11-04 02:55:00
10:15 PM,41.0,31.8,70,30.34,10.0,SE,12.7,17.3,N/A,,Clear,130,2013-11-04 03:15:00
10:35 PM,41.0,32.0,70,30.34,10.0,SE,9.2,-,N/A,,Clear,140,2013-11-04 03:35:00
10:55 PM,41.0,32.0,70,30.34,10.0,SE,8.1,-,N/A,,Clear,140,2013-11-04 03:55:00